Lapeer, MI

8:00 AM EDT on September 26, 2017 (GMT -0400)
Lapeer

Weather History for KD95 - December, 2012

Change the Weather History Date:

Monday, December 10, 2012

  Actual Average (KFNT) Record (KFNT)
Temperature  
Mean Temperature 30 °F -  
Max Temperature 33 °F 35 °F 63 °F (1971)
Min Temperature 27 °F 22 °F -5 °F (1977)
Degree Days  
Heating Degree Days 34    
Moisture  
Dew Point 31 °F    
Average Humidity 98    
Maximum Humidity 100    
Minimum Humidity 86    
Precipitation  
Precipitation 0.00 in - - ()
Sea Level Pressure  
Sea Level Pressure 29.67 in    
Wind  
Wind Speed 4 mph (WNW)    
Max Wind Speed 12 mph    
Max Gust Speed 17 mph    
Visibility 7 miles    
Events Snow    
Averages and records for this station are not official NWS values.
T = Trace of Precipitation, MM = Missing Value Source: NWS Daily Summary

Daily Weather History Graph

Daily Weather History Graph

Search for Another Location

Airport or City:

Trip Planner

Search our weather history database for the weather conditions in past years. The results will help you decide how hot, cold, wet, or windy it might be!

Date:

Astronomy

Dec. 10, 2012 Rise Set
Actual Time 7:54 AM EST 4:58 PM EST
Civil Twilight 7:21 AM EST 5:30 PM EST
Nautical Twilight 6:46 AM EST 6:06 PM EST
Astronomical Twilight 6:11 AM EST 6:40 PM EST
Moon 4:33 AM EST (12/10) 2:49 PM EST (12/10)
Length of Visible Light 10h 08m
Length of Day
9h 04m
Waning Crescent, 10% of the Moon is Illuminated
Dec 10
Waning Crescent
Dec 13
New
Dec 20
First Quarter
Dec 28
Full
Jan 4
Last Quarter

Hourly Weather History & Observations

Time (EST) Temp. Windchill Dew Point Humidity Pressure Visibility Wind Dir Wind Speed Gust Speed Precip Events Conditions
12:12 AM - - - N/A% 29.64 in 0.8 mi Calm Calm - N/A   Overcast
12:33 AM - - - N/A% 29.63 in 0.8 mi Calm Calm - N/A   Overcast
12:53 AM - - - N/A% 29.63 in 0.8 mi Calm Calm - N/A   Overcast
1:12 AM - - - N/A% 29.61 in 0.8 mi Calm Calm - N/A   Overcast
1:33 AM - - - N/A% 29.60 in 2.5 mi Calm Calm - N/A   Overcast
1:53 AM - - - N/A% 29.60 in 3.0 mi Calm Calm - N/A   Overcast
2:12 AM - - - N/A% 29.60 in 1.5 mi West 3.5 mph - N/A   Overcast
2:33 AM - - - N/A% 29.60 in 0.8 mi WSW 3.5 mph - N/A   Overcast
2:53 AM - - - N/A% 29.60 in 1.0 mi SW 4.6 mph - N/A   Overcast
3:13 AM - - - N/A% 29.59 in 1.5 mi SW 4.6 mph - N/A   Overcast
3:53 AM - - - N/A% 29.59 in 4.0 mi West 4.6 mph - N/A   Haze
4:13 AM - - - N/A% 29.59 in 4.0 mi WSW 5.8 mph - N/A   Haze
4:33 AM 32.5 °F 29.3 °F 32.5 °F 100% 29.58 in 3.0 mi WSW 3.5 mph - N/A   Overcast
4:53 AM 32.9 °F 29.8 °F 32.9 °F 100% 29.58 in 3.0 mi WSW 3.5 mph - N/A   Overcast
5:13 AM 32.9 °F 27.5 °F 32.9 °F 100% 29.59 in 3.0 mi SW 5.8 mph - N/A   Overcast
5:33 AM 32.9 °F 28.5 °F 32.9 °F 100% 29.59 in 1.8 mi WSW 4.6 mph - N/A   Overcast
5:53 AM 32.9 °F 27.5 °F 32.9 °F 100% 29.59 in 1.8 mi West 5.8 mph - N/A   Overcast
6:12 AM 33.1 °F 28.7 °F 33.1 °F 100% 29.59 in 2.5 mi West 4.6 mph - N/A   Overcast
6:33 AM 33.1 °F 30.0 °F 33.1 °F 100% 29.59 in 2.5 mi West 3.5 mph - N/A   Overcast
6:53 AM 33.3 °F 30.2 °F 33.3 °F 100% 29.60 in 2.0 mi WNW 3.5 mph - N/A   Overcast
7:12 AM 33.1 °F 28.7 °F 33.1 °F 100% 29.60 in 1.0 mi West 4.6 mph - N/A   Overcast
7:33 AM 33.1 °F 27.7 °F 33.1 °F 100% 29.60 in 2.0 mi WSW 5.8 mph - N/A   Overcast
7:53 AM 33.3 °F 27.9 °F 33.3 °F 100% 29.60 in 3.0 mi West 5.8 mph - N/A   Overcast
8:12 AM 33.6 °F 28.4 °F 33.6 °F 100% 29.60 in 5.0 mi West 5.8 mph - N/A   Overcast
8:33 AM 33.8 °F 27.0 °F 33.8 °F 100% 29.61 in 4.0 mi West 8.1 mph - N/A   Overcast
8:53 AM 33.8 °F 27.0 °F 33.8 °F 100% 29.62 in 5.0 mi West 8.1 mph - N/A   Overcast
9:12 AM 33.6 °F 28.4 °F 33.6 °F 100% 29.63 in 5.0 mi WNW 5.8 mph - N/A   Overcast
9:33 AM 33.3 °F 27.1 °F 33.3 °F 100% 29.63 in 7.0 mi West 6.9 mph - N/A   Overcast
9:53 AM 33.4 °F 27.3 °F 33.4 °F 100% 29.63 in 7.0 mi West 6.9 mph - N/A   Overcast
10:13 AM 33.8 °F 29.6 °F 33.8 °F 100% 29.63 in 7.0 mi West 4.6 mph - N/A   Overcast
10:33 AM 33.3 °F 26.4 °F 33.3 °F 100% 29.64 in 10.0 mi West 8.1 mph 17.3 mph N/A   Overcast
10:53 AM 33.3 °F 28.9 °F 33.3 °F 100% 29.64 in 4.0 mi WNW 4.6 mph - N/A Snow Light Snow
11:13 AM 32.5 °F 25.5 °F 32.5 °F 100% 29.65 in 5.0 mi WNW 8.1 mph - N/A Snow Light Snow
11:33 AM 32.9 °F 26.7 °F 32.9 °F 100% 29.65 in 10.0 mi WNW 6.9 mph - N/A   Overcast
11:53 AM 32.9 °F 24.7 °F 32.9 °F 100% 29.65 in 10.0 mi WNW 10.4 mph - N/A   Overcast
12:13 PM 32.4 °F 25.3 °F 32.4 °F 100% 29.65 in 10.0 mi WNW 8.1 mph - N/A   Overcast
12:33 PM 32.4 °F 25.3 °F 32.4 °F 100% 29.65 in 10.0 mi WNW 8.1 mph - N/A   Overcast
12:53 PM 32.4 °F 25.3 °F 32.4 °F 100% 29.66 in 10.0 mi WNW 8.1 mph - N/A   Overcast
1:13 PM 32.4 °F 24.6 °F 32.4 °F 100% 29.65 in 10.0 mi WNW 9.2 mph - N/A   Overcast
1:33 PM 32.2 °F 24.4 °F 32.2 °F 100% 29.65 in 10.0 mi WNW 9.2 mph - N/A   Overcast
1:53 PM 32.2 °F 25.0 °F 32.2 °F 100% 29.66 in 10.0 mi NW 8.1 mph - N/A   Overcast
2:13 PM 32.0 °F 24.8 °F 31.3 °F 97% 29.66 in 10.0 mi NW 8.1 mph - N/A   Overcast
2:33 PM 32.0 °F 24.8 °F 30.2 °F 93% 29.66 in 10.0 mi NW 8.1 mph 16.1 mph N/A   Overcast
2:52 PM 32.0 °F 23.0 °F 32.0 °F 100% 29.66 in 10.0 mi NW 11.5 mph 16.1 mph N/A   Overcast
3:13 PM 32.0 °F 25.6 °F 32.0 °F 100% 29.67 in 10.0 mi NNW 6.9 mph - N/A   Overcast
3:33 PM 32.0 °F 25.6 °F 32.0 °F 100% 29.68 in 10.0 mi WNW 6.9 mph - N/A   Overcast
3:52 PM 32.0 °F 26.4 °F 31.6 °F 99% 29.69 in 10.0 mi WNW 5.8 mph - N/A   Overcast
4:13 PM 32.0 °F 24.8 °F 32.0 °F 100% 29.70 in 10.0 mi WNW 8.1 mph - N/A   Overcast
4:33 PM 32.0 °F 24.2 °F 28.2 °F 86% 29.70 in 10.0 mi NW 9.2 mph - N/A   Overcast
4:52 PM 31.6 °F 25.1 °F 29.5 °F 92% 29.70 in 10.0 mi NW 6.9 mph - N/A   Overcast
5:13 PM 31.6 °F 28.3 °F 30.7 °F 96% 29.71 in 10.0 mi NW 3.5 mph - N/A   Overcast
5:33 PM 31.6 °F 28.3 °F 31.5 °F 99% 29.72 in 10.0 mi NW 3.5 mph - N/A   Overcast
5:52 PM 31.6 °F 28.3 °F 31.5 °F 99% 29.73 in 10.0 mi WNW 3.5 mph - N/A   Overcast
6:13 PM 31.6 °F - 31.6 °F 100% 29.75 in 10.0 mi Calm Calm - N/A   Overcast
6:33 PM 31.6 °F 27.0 °F 31.6 °F 100% 29.75 in 10.0 mi WNW 4.6 mph - N/A   Overcast
6:52 PM 31.6 °F 28.3 °F 30.7 °F 96% 29.76 in 10.0 mi WNW 3.5 mph - N/A   Overcast
7:13 PM 31.6 °F 26.0 °F 31.6 °F 100% 29.77 in 10.0 mi NW 5.8 mph - N/A   Overcast
7:33 PM 30.9 °F 23.5 °F 30.7 °F 99% 29.78 in 10.0 mi NNW 8.1 mph - N/A   Overcast
7:52 PM 30.6 °F 21.2 °F 29.8 °F 97% 29.78 in 10.0 mi NNW 11.5 mph - N/A   Overcast
8:13 PM 30.0 °F 21.1 °F 27.5 °F 90% 29.78 in 10.0 mi NNW 10.4 mph - N/A   Overcast
8:33 PM 29.8 °F 21.5 °F 27.5 °F 91% 29.79 in 10.0 mi NNW 9.2 mph - N/A   Overcast
8:52 PM 29.7 °F 22.0 °F 28.2 °F 94% 29.80 in 10.0 mi NNW 8.1 mph - N/A   Overcast
9:13 PM 29.7 °F 22.8 °F 28.9 °F 97% 29.81 in 10.0 mi North 6.9 mph - N/A   Overcast
9:52 PM 29.3 °F 25.6 °F 25.9 °F 87% 29.82 in 10.0 mi North 3.5 mph - N/A   Overcast
10:13 PM 29.1 °F 24.1 °F 26.6 °F 90% 29.83 in 10.0 mi North 4.6 mph - N/A   Overcast
10:33 PM 29.1 °F 23.0 °F 26.6 °F 90% 29.83 in 10.0 mi NW 5.8 mph - N/A   Overcast
10:53 PM 28.9 °F 21.9 °F 27.1 °F 93% 29.84 in 10.0 mi NNW 6.9 mph - N/A   Overcast
11:13 PM 28.9 °F 22.8 °F 28.4 °F 98% 29.85 in 10.0 mi WNW 5.8 mph - N/A   Overcast
11:33 PM 28.2 °F 20.2 °F 28.2 °F 100% 29.85 in 10.0 mi North 8.1 mph - N/A   Overcast
11:53 PM 27.5 °F 22.2 °F 27.5 °F 100% 29.86 in 10.0 mi North 4.6 mph - N/A   Overcast